[[{"header":{"parameterUnit":"m.s-1","parameterCategory":1,"la1":30.2991,"la2":30.254,"lo1":-89.0895,"lo2":-89.0444,"dy":0.0017,"dx":0.0017,"nx":28,"ny":28,"refTime":"2025-12-23T03:00:00:Z","depth":0,"parameterNumber":2,"parameterNumberName":"U-component_of_WINDS"},"data":[0,0,0,0,0,0,0,0,0,0,0,0,0,0,0,0,0,0,0,0,0,0,0,0,0,0,0,0,0,0,0,0,0,0,0,0,0,0,0,0,0,0,0,0,0,0,0,0,0,0,0,0,0,0,0,0,0,0,-0.8438,-0.8438,0,-0.8442,-0.8442,-0.8442,-0.8382,-0.8381,-0.8379,-0.8377,-0.8383,-0.8384,-0.8386,0,0,0,0,0,0,0,0,0,0,0,0,0,-0.838,-0.8382,-0.8438,-0.8438,-0.8438,-0.8442,-0.8442,-0.8442,-0.8383,-0.8381,-0.8379,-0.8377,-0.8382,-0.8384,-0.8386,0,0,0,0,0,0,0,0,0,0,0,0,0,-0.8397,-0.8382,-0.8438,-0.8409,-0.8406,-0.8442,-0.8442,-0.8442,-0.8383,-0.8381,-0.8378,-0.8376,-0.8382,-0.8384,-0.8386,-0.845,0,0,-0.8394,-0.8395,0,0,0,0,0,0,0,0,-0.8396,-0.8399,-0.8413,-0.8411,-0.8408,-0.8409,-0.8423,-0.8445,-0.8384,-0.8392,-0.8377,-0.8375,-0.8394,-0.8395,-0.8401,-0.8451,-0.8451,-0.8394,-0.8396,-0.8397,-0.8397,0,0,0,0,0,0,0,-0.8395,-0.8399,-0.8439,-0.8413,-0.841,-0.8396,-0.8396,-0.8427,-0.8406,-0.8391,-0.8387,-0.8388,-0.8392,-0.8399,-0.8401,-0.8451,-0.8394,-0.8396,-0.8398,-0.8399,-0.8554,-0.8556,0,0,0,0,0,0,-0.8398,-0.8398,-0.8439,-0.844,-0.8396,-0.8399,-0.8399,-0.8411,-0.8406,-0.8403,-0.839,-0.8385,-0.8396,-0.8398,-0.8401,-0.8475,-0.8397,-0.8399,-0.8401,-0.8551,-0.8554,-0.8557,0,0,0,0,0,0,-0.8397,-0.8402,-0.8439,-0.8418,-0.8421,-0.8403,-0.8417,-0.8413,-0.8419,-0.8405,-0.8401,-0.8401,-0.8394,-0.8397,-0.8438,-0.8475,-0.84,-0.8402,-0.8548,-0.8552,-0.8556,-0.8626,0,0,0,0,0,0,-0.8395,-0.8402,-0.8426,-0.8419,-0.8423,-0.8477,-0.8419,-0.8414,-0.8424,-0.8417,-0.8414,-0.8411,-0.8392,-0.8435,-0.8441,-0.8477,-0.8404,-0.8545,-0.855,-0.8554,-0.862,-0.8631,-0.8641,0,0,0,0,0,-0.8393,-0.8445,-0.8427,-0.8433,-0.8452,-0.8479,-0.8481,-0.8458,-0.8427,-0.8451,-0.8442,-0.8412,-0.847,-0.844,-0.8446,-0.8483,-0.8542,-0.8548,-0.8554,-0.8615,-0.8629,-0.8641,0,0,0,0,0,0,-0.8458,-0.8444,-0.8424,-0.8475,-0.8479,-0.8469,-0.8498,-0.8473,-0.8486,-0.848,-0.845,-0.845,-0.8497,-0.8494,-0.8461,-0.8545,-0.8501,-0.8508,-0.8545,-0.8558,-0.8569,-0.8569,-0.8406,0,0,0,0,0,-0.8478,-0.85,-0.8487,-0.8534,-0.8537,-0.8518,-0.8528,-0.851,-0.8513,-0.8514,-0.8508,-0.8512,-0.8531,-0.8544,-0.8561,-0.8619,-0.8618,-0.8648,-0.8658,-0.8667,-0.8674,-0.8705,-0.8718,-0.8577,-0.8576,-0.8576,0,0,-0.852,-0.8515,-0.8531,-0.8547,-0.8547,-0.8572,-0.8519,-0.8547,-0.8565,-0.8518,-0.8557,-0.8553,-0.8555,-0.8605,-0.8627,-0.8605,-0.8713,-0.8675,-0.8682,-0.8684,-0.8712,-0.8726,-0.8738,-0.8581,-0.858,-0.8579,0,0,-0.8608,-0.8607,-0.8646,-0.8647,-0.8649,-0.8636,-0.8645,-0.8639,-0.8635,-0.8673,-0.8638,-0.8659,-0.8693,-0.8697,-0.8703,-0.8793,-0.8766,-0.88,-0.8855,-0.8886,-0.8897,-0.8907,-0.8939,-0.8952,-0.8806,-0.8807,-0.8807,0,-0.866,-0.8695,-0.8669,-0.8699,-0.8707,-0.8666,-0.8705,-0.8708,-0.8715,-0.8722,-0.8697,-0.8738,-0.8737,-0.8788,-0.881,-0.8816,-0.8826,-0.88,-0.8897,-0.8907,-0.8916,-0.8947,-0.8959,-0.8811,-0.881,-0.881,-0.8809,0,-0.8759,-0.8784,-0.8816,-0.8823,-0.8835,-0.887,-0.8849,-0.8864,-0.8845,-0.8834,-0.8874,-0.8871,-0.8887,-0.8898,-0.8879,-0.8946,-0.8932,-0.8902,-0.8857,-0.8934,-0.8962,-0.8974,-0.8817,-0.8815,-0.8814,-0.8813,0,0,-0.8889,-0.8881,-0.8893,-0.8897,-0.8895,-0.8914,-0.8948,-0.8963,-0.8976,-0.8983,-0.901,-0.904,-0.9013,-0.902,-0.9001,-0.9028,-0.91,-0.8995,-0.8995,-0.9015,-0.9174,-0.9196,-0.9211,-0.9082,-0.9084,-0.9086,-0.9174,0,-0.8975,-0.9031,-0.9008,-0.9066,-0.909,-0.905,-0.9079,-0.9082,-0.9073,-0.9092,-0.9082,-0.9104,-0.9066,-0.9071,-0.9095,-0.9086,-0.9132,-0.908,-0.9108,-0.9109,-0.9109,-0.9225,-0.9249,-0.9332,-0.9185,-0.9187,-0.9188,0,-0.9084,-0.9095,-0.9155,-0.915,-0.9159,-0.9185,-0.9197,-0.9215,-0.9218,-0.921,-0.9218,-0.9194,-0.9226,-0.9181,-0.9226,-0.9191,-0.9201,-0.9199,-0.9201,-0.9204,-0.9154,-0.9231,-0.9358,-0.9371,-0.9205,-0.9204,-0.9203,0,-0.9173,-0.9202,-0.9242,-0.9246,-0.9241,-0.9261,-0.926,-0.926,-0.927,-0.9281,-0.9288,-0.9302,-0.9311,-0.9323,-0.9303,-0.9272,-0.9351,-0.9304,-0.9346,-0.9346,-0.9364,-0.9364,-0.9495,-0.9371,-0.937,-0.937,-0.937,0,-0.9272,-0.9311,-0.9282,-0.9307,-0.9349,-0.9323,-0.9365,-0.936,-0.936,-0.9384,-0.9351,-0.9373,-0.9346,-0.9366,-0.9351,-0.9391,-0.9395,-0.9389,-0.9385,-0.9393,-0.9393,-0.9399,-0.9393,-0.9373,-0.9373,-0.9372,-0.9371,0,-0.9379,-0.9361,-0.9402,-0.9394,-0.9393,-0.9425,-0.9418,-0.9441,-0.943,-0.946,-0.9465,-0.9448,-0.947,-0.9452,-0.9473,-0.9463,-0.9516,-0.9503,-0.9515,-0.9512,-0.9554,-0.9551,-0.9695,-0.9712,-0.9576,-0.9578,-0.9579,0,-0.9443,-0.9472,-0.9467,-0.948,-0.9481,-0.9503,-0.9513,-0.9488,-0.9501,-0.9506,-0.9528,-0.9548,-0.9562,-0.9599,-0.9589,-0.9605,-0.9593,-0.9642,-0.9595,-0.9602,-0.9594,-0.9593,-0.9596,-0.9652,-0.9653,-0.9655,-0.9656,0,-0.956,-0.955,-0.9566,-0.958,-0.9594,-0.9603,-0.961,-0.9623,-0.9598,-0.9614,-0.9636,-0.9647,-0.9668,-0.9688,-0.9701,-0.97,-0.9675,-0.9671,-0.9681,-0.9689,-0.9695,-0.9693,-0.9542,-0.9667,-0.9666,-0.9665,-0.9665,-0.9664,-0.9648,-0.9672,-0.9672,-0.9692,-0.9694,-0.9702,-0.9723,-0.9714,-0.9732,-0.9748,-0.9732,-0.9759,-0.9761,-0.9776,-0.9778,-0.9799,-0.9779,-0.9794,-0.9798,-0.9802,-0.9809,-0.9692,-0.9802,-0.9801,-0.9801,-0.9801,-0.98,0,-0.9763,-0.9762,-0.978,-0.9791,-0.9806,-0.978,-0.9786,-0.9801,-0.9825,-0.9829,-0.9843,-0.9869,-0.9888,-0.988,-0.9896,-0.9915,-0.9903,-0.992,-0.9919,-0.9919,-0.9826,-0.9815,-0.9929,-0.9929,-0.9929,-0.9929,-0.9929,-0.9929,-0.9825,-0.9864,-0.9854,-0.9895,-0.9893,-0.9918,-0.9925,-0.9931,-0.9934,-0.9964,-0.998,-0.9974,-0.9973,-0.999,-1.0006,-1.0003,-1.0011,-1.0032,-1.0025,-0.9938,-0.9925,-0.9913,-0.9903,-1.0034,-1.0034,-1.0117,-1.0117,-1.0118]},{"header":{"parameterUnit":"m.s-1","parameterCategory":1,"la1":30.2991,"la2":30.254,"lo1":-89.0895,"lo2":-89.0444,"dy":0.0017,"dx":0.0017,"nx":28,"ny":28,"refTime":"2025-12-23T03:00:00:Z","depth":0,"parameterNumber":3,"parameterNumberName":"V-component_of_WINDS"},"data":[0,0,0,0,0,0,0,0,0,0,0,0,0,0,0,0,0,0,0,0,0,0,0,0,0,0,0,0,0,0,0,0,0,0,0,0,0,0,0,0,0,0,0,0,0,0,0,0,0,0,0,0,0,0,0,0,0,0,0.0246,0.0246,0,0.0248,0.0248,0.0248,0.0249,0.0249,0.0249,0.0249,0.0252,0.0252,0.0252,0,0,0,0,0,0,0,0,0,0,0,0,0,0.0243,0.0243,0.0246,0.0246,0.0246,0.0248,0.0248,0.0248,0.0249,0.0249,0.0249,0.0249,0.0252,0.0252,0.0252,0,0,0,0,0,0,0,0,0,0,0,0,0,0.0245,0.0243,0.0246,0.0247,0.0247,0.0248,0.0248,0.0248,0.0249,0.0249,0.0249,0.0249,0.0252,0.0252,0.0252,0.0252,0,0,0.0252,0.0252,0,0,0,0,0,0,0,0,0.0245,0.0245,0.0247,0.0247,0.0247,0.0248,0.0248,0.0249,0.0249,0.0248,0.0249,0.0249,0.0251,0.0251,0.0251,0.0252,0.0252,0.0252,0.0252,0.0252,0.0252,0,0,0,0,0,0,0,0.0245,0.0245,0.0247,0.0247,0.0247,0.0247,0.0247,0.0248,0.0249,0.0248,0.0249,0.0249,0.0251,0.0251,0.0251,0.0252,0.0252,0.0252,0.0252,0.0252,0.0254,0.0254,0,0,0,0,0,0,0.0244,0.0245,0.0247,0.0247,0.0246,0.0247,0.0248,0.0248,0.0249,0.025,0.0249,0.0249,0.0251,0.0251,0.0251,0.0252,0.0252,0.0252,0.0252,0.0254,0.0254,0.0254,0,0,0,0,0,0,0.0244,0.0245,0.0247,0.0246,0.0246,0.0247,0.0248,0.0248,0.0248,0.025,0.025,0.0249,0.0251,0.0251,0.0252,0.0252,0.0252,0.0252,0.0254,0.0254,0.0254,0.0253,0,0,0,0,0,0,0.0244,0.0245,0.0245,0.0246,0.0246,0.0247,0.0248,0.0248,0.0248,0.0249,0.025,0.025,0.0251,0.0252,0.0252,0.0252,0.0252,0.0254,0.0254,0.0254,0.0253,0.0253,0.0253,0,0,0,0,0,0.0244,0.0244,0.0245,0.0245,0.0246,0.0247,0.0247,0.0248,0.0248,0.0249,0.0249,0.025,0.0252,0.0252,0.0252,0.0252,0.0254,0.0254,0.0254,0.0253,0.0253,0.0253,0,0,0,0,0,0,0.0243,0.0245,0.0245,0.0245,0.0246,0.0247,0.0248,0.0248,0.0249,0.0249,0.025,0.025,0.0251,0.0252,0.0252,0.0253,0.0253,0.0253,0.0252,0.0252,0.0252,0.0252,0.0252,0,0,0,0,0,0.0243,0.0244,0.0245,0.0245,0.0245,0.0246,0.0247,0.0247,0.0248,0.0249,0.025,0.025,0.0251,0.0252,0.0252,0.0253,0.0253,0.0253,0.0253,0.0253,0.0253,0.0254,0.0254,0.0254,0.0254,0.0254,0,0,0.0243,0.0244,0.0244,0.0245,0.0246,0.0246,0.0247,0.0247,0.0248,0.0249,0.025,0.025,0.0251,0.0252,0.0252,0.0253,0.0253,0.0253,0.0253,0.0253,0.0254,0.0254,0.0254,0.0254,0.0254,0.0254,0,0,0.0243,0.0243,0.0243,0.0244,0.0245,0.0246,0.0246,0.0247,0.0247,0.0248,0.0249,0.025,0.0251,0.0252,0.0252,0.0252,0.0253,0.0252,0.0252,0.0252,0.0252,0.0252,0.0252,0.0252,0.0252,0.0252,0.0252,0,0.0242,0.0243,0.0244,0.0244,0.0245,0.0245,0.0246,0.0246,0.0248,0.0248,0.0248,0.025,0.0251,0.0252,0.0252,0.0252,0.0252,0.0252,0.0252,0.0252,0.0252,0.0252,0.0252,0.0252,0.0252,0.0252,0.0252,0,0.0242,0.0243,0.0243,0.0244,0.0244,0.0245,0.0246,0.0246,0.0247,0.0248,0.0248,0.0249,0.025,0.0251,0.0251,0.0252,0.0252,0.0252,0.0252,0.0252,0.0252,0.0252,0.0252,0.0252,0.0252,0.0252,0,0,0.0241,0.0243,0.0243,0.0243,0.0244,0.0245,0.0246,0.0246,0.0247,0.0248,0.0248,0.0249,0.025,0.025,0.0251,0.0251,0.0251,0.0252,0.0252,0.0251,0.0252,0.0251,0.0251,0.0251,0.0251,0.0251,0.0252,0,0.0241,0.0242,0.0243,0.0244,0.0244,0.0245,0.0245,0.0246,0.0247,0.0247,0.0248,0.0249,0.0249,0.025,0.025,0.0251,0.0251,0.0251,0.0252,0.0252,0.0252,0.0251,0.0251,0.0251,0.0252,0.0252,0.0252,0,0.0241,0.0242,0.0243,0.0244,0.0244,0.0244,0.0245,0.0246,0.0247,0.0247,0.0248,0.0249,0.0249,0.025,0.0251,0.025,0.0251,0.0251,0.0251,0.0252,0.0252,0.0252,0.0251,0.0251,0.0252,0.0252,0.0252,0,0.0241,0.0242,0.0242,0.0243,0.0244,0.0244,0.0245,0.0246,0.0246,0.0247,0.0247,0.0248,0.0249,0.0249,0.025,0.025,0.0251,0.0252,0.0252,0.0252,0.0252,0.0252,0.0252,0.0252,0.0252,0.0252,0.0252,0,0.0241,0.0241,0.0242,0.0242,0.0243,0.0244,0.0244,0.0245,0.0246,0.0246,0.0247,0.0248,0.0249,0.0249,0.025,0.0251,0.0251,0.0252,0.0252,0.0251,0.0251,0.0252,0.0252,0.0252,0.0252,0.0252,0.0252,0,0.024,0.0241,0.0241,0.0242,0.0243,0.0243,0.0244,0.0244,0.0245,0.0246,0.0246,0.0247,0.0248,0.0249,0.025,0.0251,0.0251,0.0252,0.0251,0.0251,0.0251,0.0251,0.0251,0.0251,0.0252,0.0252,0.0252,0,0.024,0.024,0.0241,0.0242,0.0242,0.0243,0.0243,0.0244,0.0245,0.0246,0.0246,0.0247,0.0247,0.0249,0.025,0.0251,0.0251,0.0251,0.0251,0.0251,0.0251,0.0251,0.0251,0.0251,0.0251,0.0251,0.0251,0,0.024,0.024,0.024,0.0241,0.0242,0.0242,0.0243,0.0243,0.0244,0.0245,0.0246,0.0246,0.0247,0.0248,0.0249,0.025,0.0251,0.0251,0.0251,0.0251,0.025,0.025,0.0251,0.0251,0.0251,0.0251,0.0251,0.0251,0.0239,0.0239,0.024,0.0241,0.0242,0.0242,0.0243,0.0243,0.0244,0.0245,0.0245,0.0246,0.0247,0.0249,0.0249,0.025,0.025,0.025,0.025,0.025,0.025,0.025,0.025,0.025,0.025,0.025,0.025,0,0.0239,0.0239,0.024,0.0241,0.0241,0.0242,0.0243,0.0243,0.0244,0.0245,0.0245,0.0246,0.0247,0.0248,0.0249,0.0249,0.025,0.025,0.025,0.025,0.025,0.025,0.0249,0.0249,0.0249,0.0249,0.0249,0.0249,0.0239,0.0239,0.024,0.0241,0.0241,0.0242,0.0242,0.0243,0.0244,0.0245,0.0245,0.0246,0.0247,0.0248,0.0249,0.0249,0.0249,0.0249,0.0249,0.025,0.025,0.025,0.025,0.0249,0.0249,0.0249,0.0249,0.0249]}]]